Time,TemperatureF,DewpointF,PressureIn,WindDirection,WindDirectionDegrees,WindSpeedMPH,WindSpeedGustMPH,Humidity,HourlyPrecipIn,Conditions,Clouds,dailyrainin,SoftwareType,DateUTC
2013-09-16 00:03:00,57.0,54.0,30.00,North,360,10.0,14.0,88,0.00,,,0.00,weatherlink.com 1.10,2013-09-16 04:03:00,
2013-09-16 00:18:00,56.6,54.0,30.00,NNE,26,5.0,12.0,89,0.00,,,0.00,weatherlink.com 1.10,2013-09-16 04:18:00,
2013-09-16 00:33:00,56.1,53.0,30.00,North,355,5.0,12.0,90,0.00,,,0.00,weatherlink.com 1.10,2013-09-16 04:33:00,
2013-09-16 00:48:00,55.3,53.0,30.00,NNE,23,6.0,14.0,91,0.00,,,0.00,weatherlink.com 1.10,2013-09-16 04:48:00,
2013-09-16 01:03:00,53.9,51.0,30.01,NNE,17,7.0,14.0,90,0.00,,,0.00,weatherlink.com 1.10,2013-09-16 05:03:00,
2013-09-16 01:18:00,53.4,51.0,30.00,NNE,22,5.0,9.0,92,0.00,,,0.00,weatherlink.com 1.10,2013-09-16 05:18:00,
2013-09-16 01:33:00,53.1,51.0,30.00,NNE,13,1.0,7.0,93,0.01,,,0.01,weatherlink.com 1.10,2013-09-16 05:33:00,
2013-09-16 01:48:00,52.8,51.0,30.00,NNE,16,5.0,7.0,94,0.02,,,0.02,weatherlink.com 1.10,2013-09-16 05:48:00,
2013-09-16 02:03:00,52.4,51.0,30.00,NNE,28,2.0,5.0,95,0.02,,,0.02,weatherlink.com 1.10,2013-09-16 06:03:00,
2013-09-16 02:18:00,52.2,51.0,29.99,NNE,28,1.0,4.0,96,0.03,,,0.03,weatherlink.com 1.10,2013-09-16 06:18:00,
2013-09-16 02:33:00,52.4,52.0,29.99,WNW,292,2.0,3.0,97,0.02,,,0.03,weatherlink.com 1.10,2013-09-16 06:33:00,
2013-09-16 02:48:00,52.4,51.0,29.99,WNW,292,0.0,2.0,95,0.01,,,0.03,weatherlink.com 1.10,2013-09-16 06:48:00,
2013-09-16 03:04:00,52.2,51.0,29.98,WNW,292,0.0,1.0,96,0.01,,,0.03,weatherlink.com 1.10,2013-09-16 07:04:00,
2013-09-16 03:19:00,51.9,51.0,29.98,WNW,292,0.0,0.0,96,0.00,,,0.03,weatherlink.com 1.10,2013-09-16 07:19:00,
2013-09-16 03:34:00,51.8,51.0,29.97,WNW,292,0.0,0.0,96,0.00,,,0.03,weatherlink.com 1.10,2013-09-16 07:34:00,
2013-09-16 03:49:00,51.8,51.0,29.98,WNW,292,0.0,0.0,97,0.00,,,0.03,weatherlink.com 1.10,2013-09-16 07:49:00,
2013-09-16 04:04:00,51.8,51.0,29.98,WNW,292,0.0,0.0,97,0.00,,,0.03,weatherlink.com 1.10,2013-09-16 08:04:00,
2013-09-16 04:19:00,51.7,51.0,29.98,WNW,292,0.0,0.0,97,0.00,,,0.03,weatherlink.com 1.10,2013-09-16 08:19:00,
2013-09-16 04:34:00,51.7,51.0,29.98,WNW,292,0.0,0.0,98,0.00,,,0.03,weatherlink.com 1.10,2013-09-16 08:34:00,
2013-09-16 04:49:00,51.7,51.0,29.98,WNW,292,0.0,0.0,98,0.00,,,0.03,weatherlink.com 1.10,2013-09-16 08:49:00,
2013-09-16 05:04:00,51.6,51.0,29.98,WNW,292,0.0,1.0,98,0.00,,,0.03,weatherlink.com 1.10,2013-09-16 09:04:00,
2013-09-16 05:19:00,51.6,51.0,29.98,WNW,292,0.0,0.0,98,0.00,,,0.03,weatherlink.com 1.10,2013-09-16 09:19:00,
2013-09-16 05:34:00,51.6,51.0,29.98,WNW,292,0.0,0.0,98,0.00,,,0.03,weatherlink.com 1.10,2013-09-16 09:34:00,
2013-09-16 05:49:00,51.7,51.0,29.99,WNW,292,0.0,0.0,98,0.00,,,0.03,weatherlink.com 1.10,2013-09-16 09:49:00,
2013-09-16 06:04:00,51.8,51.0,29.99,WNW,292,0.0,1.0,98,0.00,,,0.03,weatherlink.com 1.10,2013-09-16 10:04:00,
2013-09-16 06:19:00,51.9,51.0,30.00,WNW,292,0.0,0.0,98,0.00,,,0.03,weatherlink.com 1.10,2013-09-16 10:19:00,
2013-09-16 06:34:00,51.9,51.0,30.00,WNW,292,0.0,0.0,98,0.00,,,0.03,weatherlink.com 1.10,2013-09-16 10:34:00,
2013-09-16 06:49:00,51.9,51.0,30.01,WNW,292,0.0,0.0,98,0.00,,,0.03,weatherlink.com 1.10,2013-09-16 10:49:00,
2013-09-16 07:04:00,51.8,51.0,30.01,WNW,292,0.0,0.0,98,0.00,,,0.03,weatherlink.com 1.10,2013-09-16 11:04:00,
2013-09-16 07:19:00,51.6,51.0,30.01,WNW,292,0.0,0.0,98,0.00,,,0.03,weatherlink.com 1.10,2013-09-16 11:19:00,
2013-09-16 07:34:00,51.5,51.0,30.01,WNW,292,0.0,0.0,99,0.00,,,0.03,weatherlink.com 1.10,2013-09-16 11:34:00,
2013-09-16 07:49:00,52.5,52.0,30.01,WNW,292,0.0,0.0,99,0.00,,,0.03,weatherlink.com 1.10,2013-09-16 11:49:00,
2013-09-16 08:04:00,52.8,52.0,30.01,SW,230,2.0,5.0,98,0.00,,,0.03,weatherlink.com 1.10,2013-09-16 12:04:00,
2013-09-16 08:19:00,54.0,52.0,30.01,West,270,5.0,7.0,94,0.00,,,0.03,weatherlink.com 1.10,2013-09-16 12:19:00,
2013-09-16 08:34:00,54.9,53.0,30.01,WSW,257,5.0,8.0,92,0.00,,,0.03,weatherlink.com 1.10,2013-09-16 12:34:00,
2013-09-16 08:49:00,55.4,53.0,30.01,SW,236,7.0,10.0,90,0.00,,,0.03,weatherlink.com 1.10,2013-09-16 12:49:00,
2013-09-16 09:04:00,56.3,53.0,30.02,WSW,245,6.0,9.0,88,0.00,,,0.03,weatherlink.com 1.10,2013-09-16 13:04:00,
2013-09-16 09:19:00,56.5,52.0,30.02,WNW,296,4.0,9.0,86,0.00,,,0.03,weatherlink.com 1.10,2013-09-16 13:19:00,
2013-09-16 09:34:00,56.4,53.0,30.03,WNW,300,0.0,5.0,88,0.00,,,0.03,weatherlink.com 1.10,2013-09-16 13:34:00,
2013-09-16 09:49:00,56.2,52.0,30.03,NNW,335,5.0,9.0,87,0.00,,,0.03,weatherlink.com 1.10,2013-09-16 13:49:00,
2013-09-16 10:04:00,56.0,53.0,30.04,NW,314,2.0,7.0,88,0.00,,,0.03,weatherlink.com 1.10,2013-09-16 14:04:00,
2013-09-16 10:19:00,55.3,53.0,30.04,North,11,1.0,7.0,92,0.01,,,0.04,weatherlink.com 1.10,2013-09-16 14:19:00,
2013-09-16 10:34:00,54.8,53.0,30.04,NW,321,0.0,5.0,94,0.01,,,0.04,weatherlink.com 1.10,2013-09-16 14:34:00,
2013-09-16 10:49:00,54.5,53.0,30.04,North,10,5.0,7.0,96,0.01,,,0.04,weatherlink.com 1.10,2013-09-16 14:49:00,
2013-09-16 11:04:00,54.2,53.0,30.05,NNE,29,3.0,9.0,96,0.01,,,0.04,weatherlink.com 1.10,2013-09-16 15:04:00,
2013-09-16 11:19:00,54.2,53.0,30.05,NW,316,4.0,8.0,97,0.00,,,0.04,weatherlink.com 1.10,2013-09-16 15:19:00,
2013-09-16 11:34:00,54.5,54.0,30.05,North,360,6.0,9.0,97,0.00,,,0.04,weatherlink.com 1.10,2013-09-16 15:34:00,
2013-09-16 11:49:00,55.0,54.0,30.05,NNE,13,6.0,11.0,96,0.00,,,0.04,weatherlink.com 1.10,2013-09-16 15:49:00,
2013-09-16 12:04:00,55.1,54.0,30.06,NNW,331,6.0,10.0,94,0.00,,,0.04,weatherlink.com 1.10,2013-09-16 16:04:00,
2013-09-16 12:19:00,56.1,54.0,30.06,NNW,342,6.0,10.0,92,0.00,,,0.04,weatherlink.com 1.10,2013-09-16 16:19:00,
2013-09-16 12:34:00,55.7,53.0,30.06,ENE,57,7.0,9.0,91,0.00,,,0.04,weatherlink.com 1.10,2013-09-16 16:34:00,
2013-09-16 12:49:00,55.4,54.0,30.07,NE,46,4.0,10.0,93,0.00,,,0.04,weatherlink.com 1.10,2013-09-16 16:49:00,
2013-09-16 13:04:00,54.4,52.0,30.07,NE,44,7.0,12.0,92,0.00,,,0.04,weatherlink.com 1.10,2013-09-16 17:04:00,
2013-09-16 13:19:00,55.3,53.0,30.08,NW,319,5.0,11.0,91,0.00,,,0.04,weatherlink.com 1.10,2013-09-16 17:19:00,
2013-09-16 13:34:00,54.7,52.0,30.08,NE,40,2.0,10.0,91,0.00,,,0.04,weatherlink.com 1.10,2013-09-16 17:34:00,
2013-09-16 13:49:00,54.1,52.0,30.09,ENE,76,7.0,10.0,92,0.00,,,0.04,weatherlink.com 1.10,2013-09-16 17:49:00,
2013-09-16 14:04:00,53.2,51.0,30.09,North,355,5.0,13.0,91,0.00,,,0.04,weatherlink.com 1.10,2013-09-16 18:04:00,
2013-09-16 14:19:00,53.0,51.0,30.10,WNW,300,4.0,13.0,91,0.00,,,0.04,weatherlink.com 1.10,2013-09-16 18:19:00,
2013-09-16 14:34:00,52.7,50.0,30.10,NE,42,13.0,13.0,91,0.00,,,0.04,weatherlink.com 1.10,2013-09-16 18:34:00,
2013-09-16 14:49:00,53.2,51.0,30.10,NNE,22,8.0,12.0,92,0.00,,,0.04,weatherlink.com 1.10,2013-09-16 18:49:00,
2013-09-16 15:04:00,52.6,50.0,30.10,NE,54,9.0,13.0,91,0.00,,,0.04,weatherlink.com 1.10,2013-09-16 19:04:00,
2013-09-16 15:19:00,52.4,50.0,30.11,NNE,14,6.0,13.0,92,0.00,,,0.04,weatherlink.com 1.10,2013-09-16 19:19:00,
2013-09-16 15:34:00,52.0,50.0,30.11,ENE,58,8.0,15.0,92,0.00,,,0.04,weatherlink.com 1.10,2013-09-16 19:34:00,
2013-09-16 15:49:00,51.2,49.0,30.11,North,5,8.0,15.0,92,0.00,,,0.04,weatherlink.com 1.10,2013-09-16 19:49:00,
2013-09-16 16:04:00,50.9,49.0,30.11,NE,44,8.0,13.0,93,0.00,,,0.04,weatherlink.com 1.10,2013-09-16 20:04:00,
2013-09-16 16:20:00,50.9,49.0,30.12,East,95,4.0,12.0,94,0.00,,,0.04,weatherlink.com 1.10,2013-09-16 20:20:00,
2013-09-16 16:35:00,51.4,49.0,30.13,ENE,60,5.0,12.0,90,0.00,,,0.04,weatherlink.com 1.10,2013-09-16 20:35:00,
2013-09-16 16:50:00,50.6,48.0,30.14,NNE,32,8.0,13.0,91,0.00,,,0.04,weatherlink.com 1.10,2013-09-16 20:50:00,
2013-09-16 17:05:00,50.4,48.0,30.14,NE,46,10.0,12.0,90,0.00,,,0.04,weatherlink.com 1.10,2013-09-16 21:05:00,
2013-09-16 17:20:00,50.5,47.0,30.15,ENE,62,7.0,14.0,87,0.00,,,0.04,weatherlink.com 1.10,2013-09-16 21:20:00,
2013-09-16 17:35:00,50.8,47.0,30.15,NNE,12,7.0,15.0,86,0.00,,,0.04,weatherlink.com 1.10,2013-09-16 21:35:00,
2013-09-16 17:50:00,50.4,45.0,30.15,NNE,32,7.0,19.0,82,0.00,,,0.04,weatherlink.com 1.10,2013-09-16 21:50:00,
2013-09-16 18:05:00,50.2,45.0,30.16,NNE,29,7.0,12.0,82,0.00,,,0.04,weatherlink.com 1.10,2013-09-16 22:05:00,
2013-09-16 18:20:00,49.9,44.0,30.17,NE,55,9.0,14.0,79,0.00,,,0.04,weatherlink.com 1.10,2013-09-16 22:20:00,
2013-09-16 18:35:00,49.9,44.0,30.18,NE,54,6.0,10.0,80,0.00,,,0.04,weatherlink.com 1.10,2013-09-16 22:35:00,
2013-09-16 18:50:00,49.6,43.0,30.18,NNE,32,7.0,11.0,79,0.00,,,0.04,weatherlink.com 1.10,2013-09-16 22:50:00,
2013-09-16 19:05:00,49.2,43.0,30.18,NNE,16,7.0,10.0,80,0.00,,,0.04,weatherlink.com 1.10,2013-09-16 23:05:00,
2013-09-16 19:20:00,48.6,43.0,30.19,ENE,59,2.0,6.0,82,0.00,,,0.04,weatherlink.com 1.10,2013-09-16 23:20:00,
2013-09-16 19:35:00,48.0,43.0,30.20,NE,36,1.0,6.0,83,0.00,,,0.04,weatherlink.com 1.10,2013-09-16 23:35:00,
2013-09-16 19:50:00,47.2,43.0,30.20,ENE,61,2.0,6.0,84,0.00,,,0.04,weatherlink.com 1.10,2013-09-16 23:50:00,
2013-09-16 20:05:00,47.2,42.0,30.21,ENE,71,4.0,6.0,83,0.00,,,0.04,weatherlink.com 1.10,2013-09-17 00:05:00,
2013-09-16 20:20:00,47.4,43.0,30.21,ENE,76,1.0,6.0,83,0.00,,,0.04,weatherlink.com 1.10,2013-09-17 00:20:00,
2013-09-16 20:35:00,47.4,43.0,30.21,ENE,67,1.0,6.0,83,0.00,,,0.04,weatherlink.com 1.10,2013-09-17 00:35:00,
2013-09-16 20:50:00,47.2,43.0,30.22,ENE,61,1.0,4.0,84,0.00,,,0.04,weatherlink.com 1.10,2013-09-17 00:50:00,
2013-09-16 21:05:00,46.7,43.0,30.23,ENE,61,0.0,1.0,85,0.00,,,0.04,weatherlink.com 1.10,2013-09-17 01:05:00,
2013-09-16 21:20:00,45.9,43.0,30.23,ENE,61,0.0,1.0,88,0.00,,,0.04,weatherlink.com 1.10,2013-09-17 01:20:00,
2013-09-16 21:35:00,44.5,41.0,30.23,ENE,61,0.0,1.0,88,0.00,,,0.04,weatherlink.com 1.10,2013-09-17 01:35:00,
2013-09-16 21:50:00,43.1,40.0,30.24,ESE,109,0.0,1.0,90,0.00,,,0.04,weatherlink.com 1.10,2013-09-17 01:50:00,
2013-09-16 22:05:00,42.3,40.0,30.24,ESE,109,0.0,1.0,92,0.00,,,0.04,weatherlink.com 1.10,2013-09-17 02:05:00,
2013-09-16 22:21:00,42.0,40.0,30.25,ESE,109,0.0,0.0,93,0.00,,,0.04,weatherlink.com 1.10,2013-09-17 02:21:00,
2013-09-16 22:36:00,41.5,40.0,30.25,ESE,109,0.0,0.0,93,0.00,,,0.04,weatherlink.com 1.10,2013-09-17 02:36:00,
2013-09-16 22:51:00,41.7,40.0,30.26,ESE,107,1.0,2.0,95,0.00,,,0.04,weatherlink.com 1.10,2013-09-17 02:51:00,
2013-09-16 23:06:00,42.0,40.0,30.26,ESE,107,0.0,2.0,94,0.00,,,0.04,weatherlink.com 1.10,2013-09-17 03:06:00,
2013-09-16 23:21:00,42.2,41.0,30.26,ESE,110,2.0,4.0,94,0.00,,,0.04,weatherlink.com 1.10,2013-09-17 03:21:00,
2013-09-16 23:36:00,42.7,41.0,30.26,East,99,2.0,3.0,92,0.00,,,0.04,weatherlink.com 1.10,2013-09-17 03:36:00,
2013-09-16 23:51:00,43.1,40.0,30.26,ESE,103,1.0,5.0,90,0.00,,,0.04,weatherlink.com 1.10,2013-09-17 03:51:00,